Location: Napoli
(40.8639°N, 14.2562°E)
Time: 16:07:08
(UTC+01:00)

A-11 Canister half - Pass Details

Date: 06 August 2025
Orbit: 1511 x 1688 km, 47.2° (Epoch: 15 December)

Event Time Altitude Azimuth Distance (km) Brightness Sun altitude
Rises 08:09:28 0° 294° (WNW) 4,810 11.1 22.1°
Reaches altitude 10° 08:12:32 10° 295° (WNW) 3,847 10.7 22.7°
Maximum altitude 08:22:28 81° 24° (NNE) 1,681 9.7 24.6°
Drops below altitude 10° 08:32:40 10° 112° (ESE) 3,945 12.5 26.5°
Sets 08:35:52 0° 113° (ESE) 4,937 12.7 27.1°
